• In Uzbekistan
  • List of Countries
  • For 7 days
  • Water Temperature
  • Satellite Maps
  • Weather Map
  • Weather Widgets
  • user-avatar
    Login

    Hourly Weather Skalka

    Today, 22 September, Saturday

    Time Temperature Precipitation Wind Pressure Humidity
    00:00 +13°C° 0 mm 3 mps 689 mmHg 65%
    01:00 +14°C° 0 mm 2 mps 689 mmHg 63%
    02:00 +13°C° 0.3 mm 3 mps 689 mmHg 67%
    03:00 +13°C° 0.3 mm 3 mps 690 mmHg 70%
    04:00 +13°C° 0.3 mm 3 mps 690 mmHg 74%
    05:00 +12°C° 1.1 mm 3 mps 691 mmHg 80%
    06:00 +11°C° 1.1 mm 3 mps 691 mmHg 85%
    07:00 +9°C° 0 mm 3 mps 692 mmHg 88%
    08:00 +8°C° 1.2 mm 2 mps 692 mmHg 88%
    09:00 +8°C° 1.2 mm 2 mps 692 mmHg 87%
    10:00 +8°C° 1.2 mm 2 mps 693 mmHg 86%
    11:00 +9°C° 0.3 mm 2 mps 693 mmHg 79%
    12:00 +10°C° 0.3 mm 2 mps 693 mmHg 72%
    13:00 +12°C° 0 mm 2 mps 694 mmHg 65%
    14:00 +13°C° 0 mm 2 mps 693 mmHg 61%
    15:00 +12°C° 0 mm 3 mps 693 mmHg 58%
    16:00 +12°C° 0 mm 3 mps 693 mmHg 55%
    17:00 +12°C° 0 mm 2 mps 693 mmHg 60%
    18:00 +9°C° 0 mm 2 mps 693 mmHg 65%
    19:00 +8°C° 0 mm 2 mps 693 mmHg 70%
    20:00 +8°C° 0 mm 2 mps 693 mmHg 69%
    21:00 +8°C° 0 mm 2 mps 693 mmHg 69%
    22:00 +8°C° 0 mm 2 mps 693 mmHg 68%
    23:00 +8°C° 0 mm 2 mps 693 mmHg 70%

    Tomorrow, 23 September, Sunday

    Time Temperature Precipitation Wind Pressure Humidity
    00:00 +8°C° 0 mm 2 mps 693 mmHg 71%
    01:00 +8°C° 0 mm 2 mps 693 mmHg 72%
    02:00 +7°C° 0 mm 2 mps 692 mmHg 73%
    03:00 +7°C° 0 mm 2 mps 692 mmHg 75%
    04:00 +7°C° 0 mm 2 mps 692 mmHg 77%
    05:00 +7°C° 0 mm 2 mps 692 mmHg 75%
    06:00 +8°C° 0 mm 2 mps 692 mmHg 73%
    07:00 +8°C° 0 mm 2 mps 692 mmHg 71%
    08:00 +10°C° 0 mm 3 mps 692 mmHg 65%
    09:00 +11°C° 0 mm 3 mps 692 mmHg 58%
    10:00 +13°C° 0 mm 4 mps 693 mmHg 52%
    11:00 +13°C° 0 mm 4 mps 692 mmHg 54%
    12:00 +13°C° 0 mm 4 mps 692 mmHg 57%
    13:00 +13°C° 0 mm 4 mps 692 mmHg 59%
    14:00 +12°C° 0.1 mm 3 mps 691 mmHg 64%
    15:00 +12°C° 0.1 mm 3 mps 690 mmHg 69%
    16:00 +11°C° 0.1 mm 3 mps 689 mmHg 74%
    17:00 +10°C° 0 mm 3 mps 688 mmHg 75%
    18:00 +10°C° 0 mm 3 mps 687 mmHg 76%
    19:00 +10°C° 0 mm 4 mps 687 mmHg 77%
    20:00 +10°C° 0.1 mm 4 mps 686 mmHg 75%
    21:00 +10°C° 0.1 mm 5 mps 685 mmHg 74%
    22:00 +12°C° 0.1 mm 5 mps 684 mmHg 72%
    23:00 +12°C° 0.8 mm 5 mps 683 mmHg 76%

    Day after tomorrow, 24 September, Monday

    Time Temperature Precipitation Wind Pressure Humidity
    00:00 +13°C° 0.8 mm 5 mps 683 mmHg 80%
    01:00 +13°C° 0.8 mm 6 mps 682 mmHg 84%
    02:00 +11°C° 2.6 mm 6 mps 683 mmHg 86%
    03:00 +10°C° 2.6 mm 6 mps 683 mmHg 88%
    04:00 +10°C° 2.6 mm 6 mps 684 mmHg 90%
    05:00 +8°C° 0.5 mm 6 mps 685 mmHg 89%
    06:00 +5°C° 0.5 mm 6 mps 686 mmHg 88%
    07:00 +3°C° 0.5 mm 7 mps 687 mmHg 87%
    08:00 +4°C° 0.2 mm 7 mps 688 mmHg 84%
    09:00 +4°C° 0.2 mm 7 mps 689 mmHg 82%
    10:00 +4°C° 0.2 mm 6 mps 690 mmHg 80%
    11:00 +5°C° 0.2 mm 7 mps 691 mmHg 74%
    12:00 +5°C° 0.2 mm 7 mps 692 mmHg 68%
    13:00 +6°C° 0.2 mm 7 mps 692 mmHg 62%
    14:00 +6°C° 0.2 mm 7 mps 692 mmHg 62%
    15:00 +5°C° 0.2 mm 7 mps 693 mmHg 63%
    16:00 +5°C° 0.2 mm 6 mps 693 mmHg 64%
    17:00 +5°C° 0.1 mm 5 mps 693 mmHg 68%
    18:00 +2°C° 0.1 mm 5 mps 693 mmHg 71%
    19:00 +1°C° 0.1 mm 4 mps 693 mmHg 75%
    20:00 +1°C° 0 mm 4 mps 694 mmHg 75%
    21:00 +1°C° 0 mm 4 mps 694 mmHg 76%
    22:00 +1°C° 0 mm 5 mps 695 mmHg 76%
    23:00 +1°C° 0.3 mm 4 mps 695 mmHg 78%

    25 September, Tuesday

    Time Temperature Precipitation Wind Pressure Humidity
    00:00 0°C° 0.3 mm 4 mps 696 mmHg 81%
    01:00 0°C° 0.3 mm 4 mps 696 mmHg 83%
    02:00 0°C° 0.1 mm 4 mps 696 mmHg 84%
    03:00 +1°C° 0.1 mm 3 mps 697 mmHg 85%
    04:00 +1°C° 0.1 mm 3 mps 697 mmHg 86%
    05:00 +1°C° 0 mm 3 mps 698 mmHg 85%
    06:00 +1°C° 0 mm 3 mps 698 mmHg 84%
    07:00 0°C° 0 mm 4 mps 699 mmHg 83%
    08:00 +1°C° 0 mm 4 mps 699 mmHg 77%
    09:00 +3°C° 0 mm 4 mps 700 mmHg 71%
    10:00 +5°C° 0 mm 4 mps 701 mmHg 65%
    11:00 +5°C° 0.2 mm 4 mps 701 mmHg 63%
    12:00 +5°C° 0.2 mm 4 mps 701 mmHg 62%
    13:00 +6°C° 0.2 mm 4 mps 701 mmHg 60%
    14:00 +5°C° 0.2 mm 4 mps 701 mmHg 61%
    15:00 +5°C° 0.2 mm 4 mps 701 mmHg 62%
    16:00 +5°C° 0.2 mm 3 mps 701 mmHg 63%
    17:00 +4°C° 0.1 mm 3 mps 701 mmHg 69%
    18:00 +3°C° 0.1 mm 2 mps 702 mmHg 74%
    19:00 +2°C° 0.1 mm 2 mps 702 mmHg 80%
    20:00 +2°C° 0 mm 1 mps 702 mmHg 80%
    21:00 +2°C° 0 mm 1 mps 703 mmHg 81%
    22:00 +1°C° 0 mm 1 mps 703 mmHg 81%
    23:00 +1°C° 0 mm 1 mps 703 mmHg 81%

    26 September, Wednesday

    Time Temperature Precipitation Wind Pressure Humidity
    00:00 +1°C° 0 mm 1 mps 703 mmHg 81%
    01:00 0°C° 0 mm 1 mps 703 mmHg 81%
    02:00 0°C° 0 mm 1 mps 703 mmHg 80%
    03:00 0°C° 0 mm 1 mps 703 mmHg 80%
    04:00 0°C° 0 mm 1 mps 703 mmHg 79%
    05:00 +1°C° 0 mm 1 mps 703 mmHg 75%
    06:00 +2°C° 0 mm 1 mps 703 mmHg 72%
    07:00 +3°C° 0 mm 1 mps 704 mmHg 68%
    08:00 +5°C° 0 mm 1 mps 704 mmHg 60%
    09:00 +6°C° 0 mm 2 mps 704 mmHg 51%
    10:00 +8°C° 0 mm 2 mps 705 mmHg 42%
    11:00 +9°C° 0 mm 2 mps 704 mmHg 41%
    12:00 +10°C° 0 mm 2 mps 704 mmHg 40%
    13:00 +11°C° 0 mm 3 mps 703 mmHg 39%
    14:00 +12°C° 0 mm 2 mps 703 mmHg 43%
    15:00 +12°C° 0 mm 2 mps 702 mmHg 48%
    16:00 +10°C° 0 mm 2 mps 702 mmHg 53%
    17:00 +8°C° 0 mm 2 mps 701 mmHg 59%
    18:00 +6°C° 0 mm 2 mps 701 mmHg 66%
    19:00 +4°C° 0 mm 2 mps 700 mmHg 73%
    20:00 +4°C° 0 mm 2 mps 700 mmHg 71%
    21:00 +4°C° 0 mm 2 mps 700 mmHg 70%
    22:00 +4°C° 0 mm 2 mps 700 mmHg 68%
    23:00 +4°C° 0 mm 2 mps 700 mmHg 67%

    27 September, Thursday

    Time Temperature Precipitation Wind Pressure Humidity
    00:00 +4°C° 0 mm 2 mps 699 mmHg 67%
    01:00 +3°C° 0 mm 2 mps 699 mmHg 66%
    02:00 +3°C° 0 mm 2 mps 699 mmHg 66%
    03:00 +3°C° 0 mm 2 mps 698 mmHg 65%
    04:00 +3°C° 0 mm 2 mps 698 mmHg 65%
    05:00 +3°C° 0 mm 2 mps 698 mmHg 63%
    06:00 +4°C° 0 mm 2 mps 698 mmHg 61%
    07:00 +5°C° 0 mm 2 mps 698 mmHg 58%
    08:00 +8°C° 0 mm 2 mps 698 mmHg 52%
    09:00 +12°C° 0 mm 2 mps 699 mmHg 46%
    10:00 +14°C° 0 mm 2 mps 699 mmHg 40%
    11:00 +14°C° 0 mm 3 mps 699 mmHg 38%
    12:00 +16°C° 0 mm 3 mps 698 mmHg 37%
    13:00 +17°C° 0 mm 3 mps 698 mmHg 35%
    14:00 +17°C° 0 mm 2 mps 698 mmHg 40%
    15:00 +16°C° 0 mm 2 mps 697 mmHg 45%
    16:00 +16°C° 0 mm 2 mps 697 mmHg 50%
    17:00 +13°C° 0 mm 2 mps 696 mmHg 56%
    18:00 +10°C° 0 mm 2 mps 696 mmHg 61%
    19:00 +8°C° 0 mm 2 mps 695 mmHg 67%
    20:00 +8°C° 0 mm 2 mps 695 mmHg 67%
    21:00 +7°C° 0 mm 2 mps 695 mmHg 67%
    22:00 +7°C° 0 mm 2 mps 695 mmHg 68%
    23:00 +8°C° 0 mm 1 mps 694 mmHg 67%
    Show more